Flag for Sao Tome and Principe Weather past 2 weeks in São Tomé, Sao Tome and Principe

Now
75 °F

Passing clouds.


Feels Like: 75 °F
Forecast: N/A
Wind: 2 mph from South

Location: S. Tome

Current Time: Sep 22, 2014 at 8:49:08 PM

Latest Report: Sep 22, 2014 at 8:00 PM


Visibility: N/A

Pressure: 29.92 "Hg

Humidity: 89%

Dew point: 72 °F

Location of São ToméLocation

Historic Weather in São Tomé — Graph

°F

São Tomé temperature yesterday

Maximum temperature yesterday: 84 °F (at 9:00 AM)
Minimum temperature yesterday: 75 °F (at 6:00 AM)
Average temperature yesterday: 79 °F

Past Weeks' High & Low Weather Summary

 TemperatureHumidityPressure
High86 °F (Sep 13, 1:00 PM)100% (Sep 11, 7:00 AM)30.04 "Hg (Sep 11, 7:00 AM)
Low72 °F (Sep 10, 2:00 AM)62% (Sep 13, 1:00 PM)29.86 "Hg (Sep 10, 4:00 PM)
Average79 °F81%29.94 "Hg
* Reported Sep 7 7:00 PM — Sep 22 7:00 PM, São Tomé, Weather by CustomWeather, © 2014

Note: Actual official high and low records may vary slightly from our data, if they occured in-between our weather recording intervals... More about our weather records

Advertising

São Tomé weather history for previous 24 hours

 ConditionsComfort  
Time TempWeatherWind HumidityBarometerVisibility
7:00 PM
Sep 22
77 °FPassing clouds.7 mph89%29.89 "HgN/A
5:00 PM77 °FBroken clouds.9 mph89%29.86 "HgN/A
4:00 PM77 °FBroken clouds.5 mph94%29.86 "HgN/A
3:00 PM81 °FBroken clouds.8 mph79%29.86 "HgN/A
2:00 PM84 °FScattered clouds.9 mph74%29.86 "HgN/A
1:00 PM84 °FBroken clouds.9 mph70%29.89 "HgN/A
12:00 PM82 °FScattered clouds.9 mph79%29.92 "HgN/A
10:00 AM84 °FScattered clouds.9 mph74%29.95 "HgN/A
9:00 AM82 °FScattered clouds.7 mph79%29.95 "HgN/A
8:00 AM81 °FPartly sunny.5 mph79%29.95 "HgN/A
7:00 AM75 °FPartly sunny.5 mph89%29.95 "HgN/A
6:00 AM73 °FPartly sunny.2 mph94%29.95 "HgN/A
5:00 AM75 °FPassing clouds.5 mph89%29.92 "HgN/A
4:00 AM75 °FPassing clouds.7 mph89%29.92 "HgN/A
3:00 AM75 °FPassing clouds.7 mph89%29.92 "HgN/A
2:00 AM75 °FPassing clouds.9 mph94%29.92 "HgN/A
1:00 AM75 °FPassing clouds.12 mph89%29.95 "HgN/A
12:00 AM75 °FPassing clouds.7 mph89%29.98 "HgN/A
10:00 PM
Sep 21
77 °FPassing clouds.7 mph83%29.98 "HgN/A
9:00 PM77 °FPassing clouds.12 mph83%29.95 "HgN/A
8:00 PM77 °FPassing clouds.9 mph83%29.95 "HgN/A
Weather by CustomWeather, © 2014

See weather overviewHow to use our weather pages